This is the latest recevied weather packets stored in our database for station/object F1AGU-13. If no packets are shown the sender has not sent any weather packets the latest 1 day(s).
| Time | Temp. | Humidity | Pressure | Rain* | Wind** | Luminosity | Snow |
|---|---|---|---|---|---|---|---|
| 1836274690 | 14.44° C | 90% | 1025.9 hPa | 0 mm | 1.79 m/s, 180° | - | - |
| 1836274540 | 14.44° C | 90% | 1025.9 hPa | 0 mm | 1.79 m/s, 203° | - | - |
| 1836274090 | 14.44° C | 90% | 1025.9 hPa | 0 mm | 1.34 m/s, 180° | - | - |
| 1778031317 | 6.11° C | 98% | 1008.4 hPa | 0 mm | 0.45 m/s, 135° | - | - |
| 1778030717 | 6.11° C | 97% | 1008.8 hPa | 0 mm | 0.45 m/s, 135° | - | - |
| 1778030128 | 6.11° C | 97% | 1008.7 hPa | 0 mm | 0.45 m/s, 180° | - | - |
| 1778029517 | 6.11° C | 97% | 1008.7 hPa | 0 mm | 0.45 m/s, 225° | - | - |
| 1778028917 | 6.11° C | 97% | 1008.8 hPa | 0 mm | 0.45 m/s, 135° | - | - |
| 1778025917 | 6.67° C | 97% | 1009.5 hPa | 0 mm | 0.45 m/s, 135° | - | - |
| 1778024717 | 6.67° C | 97% | 1009.7 hPa | 0.25 mm | 0.89 m/s, 135° | - | - |
| 1778022917 | 7.22° C | 97% | 1010.4 hPa | 0.25 mm | 0.45 m/s, 180° | - | - |
| 1778022317 | 7.22° C | 97% | 1010.5 hPa | 0.25 mm | 0.45 m/s, 135° | - | - |
| 1778021717 | 7.22° C | 97% | 1010.7 hPa | 0.51 mm | 0.89 m/s, 203° | - | - |
| 1778021117 | 7.22° C | 97% | 1010.6 hPa | 1.27 mm | 0.45 m/s, 180° | - | - |
| 1778020517 | 7.22° C | 96% | 1010.6 hPa | 1.52 mm | 0.89 m/s, 225° | - | - |
| 1778019917 | 7.22° C | 96% | 1010.5 hPa | 1.78 mm | 1.34 m/s, 45° | - | - |
| 1778019317 | 7.22° C | 96% | 1010.6 hPa | 2.29 mm | 0.45 m/s, 315° | - | - |
| 1778018716 | 7.78° C | 96% | 1010.9 hPa | 2.29 mm | 0.89 m/s, 315° | - | - |
| 1778017517 | 7.78° C | 96% | 1011.4 hPa | 1.27 mm | 0.89 m/s, 180° | - | - |
| 1778016917 | 7.78° C | 96% | 1011.5 hPa | 0.76 mm | 0.89 m/s, 293° | - | - |
| 1778016317 | 7.78° C | 96% | 1011.6 hPa | 1.02 mm | 0.45 m/s, 0° | - | - |
| 1778015717 | 7.78° C | 96% | 1011.5 hPa | 2.03 mm | 0.89 m/s, 135° | - | - |
| 1778015117 | 7.78° C | 96% | 1011.7 hPa | 2.79 mm | 0.89 m/s, 180° | - | - |
| 1778013917 | 7.78° C | 95% | 1011.5 hPa | 4.83 mm | 0.89 m/s, 135° | - | - |
| 1778013317 | 7.78° C | 95% | 1011.5 hPa | 5.33 mm | 0.45 m/s, 0° | - | - |
* Rain latest hour (hover to see other rain measurements)
** Current wind speed in m/s (hover to see current wind gust speed)